Weather History for West Bend, WI

Change the Weather History Date:

Monday, August 12, 2013

  Actual Average Record
Temperature  
Mean Temperature 68 °F -  
Max Temperature 78 °F 77 °F 94 °F (1988)
Min Temperature 59 °F 55 °F 38 °F (1982)
Cooling Degree Days 4    
Growing Degree Days 18 (Base 50)    
Moisture  
Dew Point 57 °F    
Average Humidity 72    
Maximum Humidity 100    
Minimum Humidity 44    
Precipitation  
Precipitation 0.00 in - - ()
Sea Level Pressure  
Sea Level Pressure 29.97 in    
Wind  
Wind Speed 2 mph (NNW)    
Max Wind Speed 17 mph    
Max Gust Speed 25 mph    
Visibility 9 miles    
Events Fog    
Averages and records for this station are not official NWS values.
T = Trace of Precipitation, MM = Missing Value Source: NWS Daily Summary

Daily Weather History Graph

Daily Weather History Graph

Search for Another Location

Airport:

Trip Planner

Search our weather history database for the weather conditions in past years. The results will help you decide how hot, cold, wet, or windy it might be!

Date:

Astronomy

Aug. 12, 2013 Rise Set
Actual Time 5:54 AM CDT 7:59 PM CDT
Civil Twilight 5:23 AM CDT 8:30 PM CDT
Nautical Twilight 4:44 AM CDT 9:09 PM CDT
Astronomical Twilight 4:02 AM CDT 9:50 PM CDT
Moon 11:57 AM CDT (8/12) 10:39 PM CDT (8/12)
Length of Visible Light 15h 07m
Length of Day
14h 05m
Waxing Crescent, 31% of the Moon is Illuminated
Aug 12
Waxing Crescent
Aug 14
First Quarter
Aug 20
Full
Aug 28
Last Quarter
Sep 5
New

Hourly Weather History & Observations

Time (CDT) Temp. Dew Point Humidity Pressure Visibility Wind Dir Wind Speed Gust Speed Precip Events Conditions
2:15 AM 59.0 °F 59.0 °F 100% 30.03 in 7.0 mi Calm Calm - N/A   Overcast
2:35 AM 60.8 °F 59.0 °F 94% 30.03 in 7.0 mi Calm Calm - N/A   Overcast
2:55 AM 60.8 °F 59.0 °F 94% 30.03 in 7.0 mi Calm Calm - N/A   Overcast
3:15 AM 60.8 °F 59.0 °F 94% 30.03 in 7.0 mi Calm Calm - N/A   Overcast
3:35 AM 59.0 °F 59.0 °F 100% 30.02 in 5.0 mi Calm Calm - N/A   Overcast
3:55 AM 60.8 °F 59.0 °F 94% 30.02 in 4.0 mi Calm Calm - N/A   Overcast
4:15 AM 60.8 °F 59.0 °F 94% 30.01 in 5.0 mi Calm Calm - N/A   Overcast
4:35 AM 59.0 °F 59.0 °F 100% 30.01 in 7.0 mi Calm Calm - N/A   Mostly Cloudy
4:55 AM 59.0 °F 59.0 °F 100% 30.00 in 5.0 mi Calm Calm - N/A   Overcast
5:15 AM 59.0 °F 59.0 °F 100% 30.00 in 4.0 mi Calm Calm - N/A   Light Drizzle
5:35 AM 59.0 °F 59.0 °F 100% 30.00 in 4.0 mi Calm Calm - N/A   Mostly Cloudy
5:55 AM 59.0 °F 59.0 °F 100% 29.99 in 0.2 mi Calm Calm - N/A Fog Fog
6:15 AM 59.0 °F 57.2 °F 94% 30.00 in 1.2 mi Calm Calm - N/A   Overcast
6:35 AM 59.0 °F 59.0 °F 100% 30.00 in 7.0 mi Calm Calm - N/A   Overcast
6:55 AM 59.0 °F 59.0 °F 100% 30.00 in 5.0 mi Calm Calm - N/A   Overcast
7:15 AM 60.8 °F 59.0 °F 94% 29.99 in 7.0 mi Calm Calm - N/A   Mostly Cloudy
7:35 AM 60.8 °F 60.8 °F 100% 29.99 in 5.0 mi Calm Calm - N/A   Mostly Cloudy
8:15 AM 62.6 °F 60.8 °F 94% 29.98 in 5.0 mi Calm Calm - N/A   Overcast
8:35 AM 64.4 °F 60.8 °F 88% 29.98 in 10.0 mi Calm Calm - N/A   Overcast
8:55 AM 66.2 °F 60.8 °F 83% 29.98 in 10.0 mi Calm Calm - N/A   Overcast
9:15 AM 66.2 °F 60.8 °F 83% 29.98 in 10.0 mi Calm Calm - N/A   Mostly Cloudy
9:35 AM 68.0 °F 60.8 °F 78% 29.98 in 10.0 mi Calm Calm - N/A   Scattered Clouds
9:55 AM 69.8 °F 59.0 °F 68% 29.98 in 10.0 mi Calm Calm - N/A   Clear
10:15 AM 69.8 °F 59.0 °F 68% 29.98 in 10.0 mi Calm Calm - N/A   Mostly Cloudy
10:35 AM 71.6 °F 59.0 °F 64% 29.97 in 10.0 mi Calm Calm - N/A   Mostly Cloudy
10:55 AM 71.6 °F 55.4 °F 57% 29.97 in 10.0 mi Calm Calm - N/A   Mostly Cloudy
11:15 AM 71.6 °F 59.0 °F 64% 29.97 in 10.0 mi Calm Calm - N/A   Scattered Clouds
11:35 AM 71.6 °F 57.2 °F 60% 29.97 in 10.0 mi NW 3.5 mph - N/A   Scattered Clouds
11:55 AM 73.4 °F 55.4 °F 53% 29.97 in 10.0 mi Calm Calm - N/A   Scattered Clouds
12:15 PM 73.4 °F 55.4 °F 53% 29.97 in 10.0 mi Calm Calm - N/A   Mostly Cloudy
12:35 PM 73.4 °F 57.2 °F 57% 29.96 in 10.0 mi Calm Calm - N/A   Mostly Cloudy
12:55 PM 75.2 °F 53.6 °F 47% 29.95 in 10.0 mi WSW 4.6 mph - N/A   Scattered Clouds
1:15 PM 77.0 °F 55.4 °F 47% 29.95 in 10.0 mi NNW 4.6 mph - N/A   Scattered Clouds
1:35 PM 77.0 °F 53.6 °F 44% 29.95 in 10.0 mi NNW 5.8 mph - N/A   Mostly Cloudy
1:55 PM 77.0 °F 55.4 °F 47% 29.95 in 7.0 mi NW 6.9 mph - N/A   Mostly Cloudy
2:15 PM 77.0 °F 55.4 °F 47% 29.94 in 10.0 mi WNW 6.9 mph - N/A   Scattered Clouds
2:35 PM 77.0 °F 53.6 °F 44% 29.93 in 10.0 mi NW 5.8 mph - N/A   Clear
2:55 PM 77.0 °F 53.6 °F 44% 29.93 in 10.0 mi NW 6.9 mph - N/A   Clear
3:15 PM 77.0 °F 55.4 °F 47% 29.92 in 10.0 mi WNW 8.1 mph - N/A   Scattered Clouds
3:35 PM 77.0 °F 55.4 °F 47% 29.91 in 10.0 mi NW 9.2 mph - N/A   Scattered Clouds
3:55 PM 77.0 °F 57.2 °F 50% 29.91 in 10.0 mi WNW 6.9 mph - N/A   Clear
4:15 PM 78.8 °F 55.4 °F 44% 29.90 in 10.0 mi WSW 6.9 mph - N/A   Scattered Clouds
4:35 PM 77.0 °F 55.4 °F 47% 29.90 in 10.0 mi NW 6.9 mph - N/A   Scattered Clouds
4:55 PM 77.0 °F 57.2 °F 50% 29.90 in 10.0 mi NW 4.6 mph - N/A   Scattered Clouds
5:15 PM 77.0 °F 55.4 °F 47% 29.90 in 10.0 mi NW 6.9 mph - N/A   Scattered Clouds
5:35 PM 77.0 °F 55.4 °F 47% 29.90 in 10.0 mi West 10.4 mph - N/A   Scattered Clouds
5:55 PM 75.2 °F 55.4 °F 50% 29.91 in 10.0 mi NW 11.5 mph 17.3 mph N/A   Mostly Cloudy
6:15 PM 73.4 °F 55.4 °F 53% 29.91 in 10.0 mi NNW 9.2 mph - N/A   Mostly Cloudy
6:35 PM 71.6 °F 55.4 °F 57% 29.91 in 10.0 mi North 5.8 mph - N/A   Mostly Cloudy
6:55 PM 71.6 °F 57.2 °F 60% 29.92 in 10.0 mi NNW 4.6 mph - N/A   Mostly Cloudy
7:15 PM 69.8 °F 55.4 °F 60% 29.92 in 10.0 mi North 4.6 mph - N/A   Scattered Clouds
7:35 PM 68.0 °F 59.0 °F 73% 29.92 in 10.0 mi Calm Calm - N/A   Mostly Cloudy
7:55 PM 68.0 °F 59.0 °F 73% 29.93 in 10.0 mi Calm Calm - N/A   Mostly Cloudy
8:15 PM 66.2 °F 59.0 °F 78% 29.93 in 10.0 mi Calm Calm - N/A   Overcast
8:35 PM 64.4 °F 59.0 °F 83% 29.93 in 10.0 mi Calm Calm - N/A   Scattered Clouds
8:55 PM 62.6 °F 59.0 °F 88% 29.95 in 10.0 mi North 6.9 mph - N/A   Scattered Clouds
9:15 PM 64.4 °F 57.2 °F 77% 29.96 in 10.0 mi NNE 12.7 mph 17.3 mph N/A   Scattered Clouds
9:35 PM 64.4 °F 53.6 °F 68% 29.97 in 10.0 mi NNE 12.7 mph 17.3 mph N/A   Clear
9:55 PM 62.6 °F 53.6 °F 72% 29.98 in 10.0 mi NNE 6.9 mph - N/A   Scattered Clouds
10:15 PM 60.8 °F 53.6 °F 77% 29.99 in 10.0 mi NE 10.4 mph 16.1 mph N/A   Scattered Clouds
10:35 PM 60.8 °F 55.4 °F 82% 29.99 in 10.0 mi NNE 8.1 mph - N/A   Scattered Clouds
10:55 PM 60.8 °F 55.4 °F 82% 30.00 in 10.0 mi NNE 10.4 mph - N/A   Overcast
11:15 PM 60.8 °F 51.8 °F 72% 30.00 in 10.0 mi NE 17.3 mph 25.3 mph N/A   Overcast
11:35 PM 59.0 °F 50.0 °F 72% 30.02 in 10.0 mi NNE 13.8 mph 20.7 mph N/A   Overcast
11:55 PM 59.0 °F 50.0 °F 72% 30.02 in 10.0 mi NNE 11.5 mph 16.1 mph N/A   Overcast